GFSFLT2_925_temp_057.txt.gz
Temp
16 15 16 16 16 16 16 16 16 16 17 17 17 17 17 17 17 17 17 17 17 17 16 16 16 16 16 17 17 18 19 19
14 14 15 16 16 16 16 16 16 16 17 17 17 17 17 17 17 17 17 17 17 16 16 16 16 16 16 16 17 18 19 18
14 14 14 14 15 15 15 15 16 16 17 17 17 17 17 17 16 17 17 17 16 16 16 16 16 15 16 16 17 18 18 18
14 13 13 14 14 15 15 16 16 16 16 17 17 17 18 16 16 16 16 16 16 16 16 16 16 17 16 17 16 17 17 17
12 12 14 14 14 14 14 15 15 16 16 17 17 17 17 15 14 15 15 16 15 15 15 17 16 17 16 16 16 17 17 17
11 12 12 13 13 13 14 14 15 15 16 16 16 16 16 15 15 15 15 16 16 16 16 15 15 15 15 15 15 16 16 17
11 12 11 11 12 12 13 14 15 16 15 16 16 16 16 16 17 17 17 17 16 16 15 15 15 15 15 15 15 15 15 16
10 11 11 11 11 11 12 15 16 16 16 16 16 17 17 17 17 17 17 16 16 16 16 16 16 15 14 14 14 15 14 15
12 11 11 11 11 13 14 15 16 16 16 17 16 17 16 17 17 17 16 16 16 16 15 16 16 16 15 15 15 14 14 14
10 11 11 12 12 14 14 17 17 17 18 17 16 16 16 16 17 16 16 16 15 16 15 16 16 16 16 15 15 14 14 13
13 14 14 14 15 15 16 17 17 18 18 17 15 15 16 16 16 16 16 15 15 14 15 16 16 16 16 15 14 15 14 14
16 15 15 15 15 16 17 17 17 18 18 17 16 16 16 15 16 16 15 15 14 14 15 14 16 16 16 16 14 14 14 13
17 16 17 17 18 18 18 18 18 18 18 17 15 15 16 15 16 16 14 15 15 13 13 14 14 15 15 15 15 14 12 13
18 18 18 18 19 19 19 19 18 18 17 17 15 15 16 15 15 16 14 15 14 13 13 13 14 14 15 16 16 16 13 12
19 19 19 19 20 20 20 19 19 19 19 18 14 13 15 15 15 15 15 15 14 12 13 14 15 14 13 15 15 14 14 15
20 20 20 20 20 21 20 20 20 19 19 18 14 14 15 15 14 13 15 15 14 12 12 13 14 15 13 12 11 11 13 14
20 20 20 21 21 20 20 20 20 20 19 18 14 13 12 14 13 13 14 13 12 12 13 13 14 14 11 10 9 10 11 12
20 20 21 21 21 20 20 20 19 20 20 16 14 13 13 13 13 13 12 11 12 12 13 13 11 11 9 9 9 10 12 12
21 21 21 21 21 20 20 19 19 19 19 17 16 15 14 13 12 11 11 10 11 13 12 11 10 8 9 8 8 9 9 10
22 22 22 22 21 20 19 19 18 18 18 18 17 16 15 13 11 11 10 9 11 11 10 9 7 8 7 7 7 8 10 10

GFSFLT2_925_temp_060.txt.gz
Temp
18 15 15 15 15 16 16 16 16 16 16 16 17 17 17 17 17 17 17 17 17 17 17 17 17 17 17 18 18 19 17 16
16 18 16 15 15 14 16 16 16 16 16 16 16 16 17 17 17 17 17 17 17 17 17 17 17 17 17 18 18 18 17 16
14 14 14 14 13 13 15 16 16 16 16 16 17 16 16 16 17 17 17 17 17 17 17 17 17 17 17 17 17 18 17 15
14 14 13 13 13 13 14 14 16 16 16 16 16 16 16 16 16 16 17 16 16 16 16 16 16 17 17 16 17 17 17 15
13 13 13 13 13 14 15 14 14 16 16 17 17 16 17 16 16 16 16 16 16 16 16 16 16 16 16 16 16 17 16 15
12 12 12 12 14 15 15 14 16 16 17 16 16 16 17 16 16 16 16 15 16 16 16 15 15 15 15 15 16 16 16 15
11 12 12 13 13 14 14 13 15 15 16 16 16 17 16 16 16 16 16 16 16 16 15 15 15 15 15 15 15 15 15 14
11 11 11 12 12 12 12 13 14 15 16 16 16 16 16 16 16 16 17 17 16 16 15 15 15 15 14 14 15 15 15 14
11 11 12 12 12 11 11 12 13 16 16 16 16 16 17 16 17 17 17 17 16 16 16 16 16 16 15 15 15 14 14 14
11 12 12 12 12 11 12 14 16 16 16 16 16 16 16 17 17 17 17 16 16 16 16 16 16 16 16 15 15 15 14 14
11 11 10 11 11 12 14 15 15 16 17 17 16 17 16 16 17 17 16 16 16 15 15 16 16 16 16 15 15 15 14 14
12 12 12 12 12 13 13 15 16 17 17 18 17 16 16 16 16 16 16 15 15 15 15 15 16 16 16 15 15 14 14 14
13 13 13 13 13 13 14 16 16 17 17 18 17 16 16 15 16 16 16 15 15 14 14 15 15 15 15 15 15 15 14 13
15 15 15 15 15 15 16 17 17 17 18 18 17 16 16 16 16 16 15 14 14 14 14 14 14 15 14 15 13 13 13 13
17 16 15 15 17 18 18 18 18 18 18 18 17 16 16 16 16 16 15 14 15 14 13 13 13 14 14 14 12 12 13 13
17 17 17 17 18 19 19 19 19 18 18 18 17 16 16 16 15 16 15 14 14 13 13 13 13 14 14 13 13 11 10 11
18 18 18 19 19 19 20 20 20 20 19 19 18 16 15 15 14 14 14 14 13 13 12 12 12 13 13 12 11 10 10 10
19 20 20 20 20 20 20 20 20 20 19 19 18 16 15 14 13 12 13 13 13 13 11 11 10 10 11 11 10 10 10 10
20 20 20 20 21 21 20 20 20 20 20 19 17 15 14 14 14 13 12 13 13 12 10 9 9 9 8 8 9 8 8 9
21 20 20 20 21 21 21 20 20 19 18 18 18 15 14 14 14 13 13 13 12 11 10 9 9 8 7 7 7 7 7 7

GFSFLT2_925_temp_063.txt.gz
Temp
19 15 15 14 16 15 16 16 17 17 17 17 17 17 17 17 17 17 17 17 17 17 18 18 18 18 18 18 16 15 15 14
15 17 14 14 14 13 14 16 16 17 17 16 17 16 16 17 17 17 17 17 17 17 17 18 18 18 18 18 16 15 14 14
14 14 14 14 14 14 14 15 16 17 17 17 16 15 16 16 17 17 17 17 17 17 17 17 17 17 17 17 16 16 16 15
14 13 13 13 13 13 14 16 17 17 16 17 16 16 16 17 17 17 17 17 17 16 16 16 16 16 17 17 16 16 16 15
14 13 12 13 12 13 13 15 15 15 16 16 16 16 16 17 17 17 16 16 16 16 15 15 16 16 16 16 16 16 15 15
13 12 12 12 12 13 14 15 16 16 16 17 17 17 16 17 16 16 17 16 16 15 15 16 16 16 16 16 16 15 15 14
12 12 12 13 13 14 14 15 16 16 16 16 17 17 17 16 16 17 16 16 16 15 16 15 15 15 15 15 16 15 15 14
12 12 12 13 13 14 15 15 15 16 16 16 16 17 16 17 17 17 16 16 16 16 16 15 15 15 15 15 15 15 14 14
11 11 12 13 14 13 13 14 15 15 16 16 16 16 16 17 17 16 16 16 16 16 16 15 15 15 15 15 15 15 14 14
11 11 12 14 14 14 13 14 15 15 16 16 16 16 17 17 16 16 16 16 16 16 16 16 16 15 15 15 15 14 14 14
11 12 13 14 14 14 14 14 15 16 16 16 17 16 16 16 16 17 16 16 16 16 16 16 16 16 15 15 15 15 14 14
11 12 12 11 11 11 12 14 15 15 15 16 17 17 16 16 16 16 16 16 16 16 15 15 15 16 16 16 15 15 14 14
11 11 11 11 12 12 12 13 15 16 16 17 17 16 16 16 16 16 16 16 16 15 15 15 15 15 15 15 15 14 14 14
11 11 11 12 12 12 13 14 15 16 17 17 17 17 16 16 16 16 16 16 15 15 15 15 15 15 15 14 12 13 13 14
12 12 11 12 13 13 13 14 15 16 16 17 17 17 17 16 16 16 16 15 15 15 15 14 14 14 14 14 11 11 11 13
13 13 13 13 13 13 14 15 15 16 17 17 17 17 17 16 16 16 16 16 15 14 14 14 13 13 12 12 11 11 9 9
14 14 14 14 14 15 15 16 17 17 17 17 17 17 17 17 16 16 16 15 14 14 14 13 12 11 10 10 9 9 9 9
16 15 15 15 15 16 16 17 17 17 17 17 17 17 17 16 16 16 15 14 13 13 13 12 12 10 10 10 9 8 8 9
16 16 16 16 16 16 17 18 18 19 19 18 17 16 16 16 15 14 14 14 13 12 12 11 10 9 9 9 8 8 7 7
17 17 17 17 17 17 18 19 19 19 19 19 19 18 18 17 15 14 13 12 12 12 11 10 9 9 9 9 8 7 7 7

GFSFLT2_925_temp_066.txt.gz
Temp
17 15 16 13 14 16 16 17 17 17 17 17 16 16 16 17 18 18 18 18 18 18 18 17 17 16 16 15 16 15 15 13
14 13 15 15 13 14 14 15 17 17 16 16 16 16 17 17 17 18 18 18 18 18 17 17 17 17 16 15 15 15 14 13
14 14 15 14 14 14 15 15 16 16 16 16 16 16 17 17 17 18 18 18 17 17 17 17 17 16 16 16 15 15 14 13
14 14 13 13 13 12 13 14 16 16 16 17 16 17 17 17 17 17 17 17 17 17 17 17 17 16 16 16 16 15 14 13
13 13 13 13 12 12 12 14 16 17 18 17 16 17 17 17 16 17 17 17 16 16 16 16 16 16 16 15 15 15 14 13
13 13 12 12 12 13 14 15 15 16 17 17 17 17 17 17 17 17 17 16 16 16 16 16 16 16 16 15 15 15 15 14
13 12 12 12 12 14 15 15 16 16 17 17 17 17 17 17 16 17 16 16 16 16 15 15 16 16 15 15 15 15 14 14
12 12 12 12 13 15 15 15 16 16 16 17 18 18 17 16 17 16 16 16 16 16 16 16 16 15 15 15 15 14 14 14
11 11 12 12 12 14 15 15 16 16 16 17 17 17 17 17 16 16 16 16 16 16 16 15 15 15 15 15 15 14 14 14
11 11 12 13 13 13 14 15 15 16 16 16 16 16 17 16 16 16 16 16 16 16 16 15 15 15 15 15 15 15 14 14
11 11 12 12 13 14 14 15 16 15 16 16 16 16 16 16 16 16 16 16 16 16 16 15 15 15 15 15 15 15 15 14
11 10 12 13 14 14 14 15 15 16 17 18 17 16 16 16 16 16 16 16 16 16 16 15 15 15 15 15 15 15 14 14
11 12 12 13 13 13 13 15 16 17 16 16 16 16 16 16 16 17 16 16 16 16 16 15 15 15 14 14 14 14 14 14
10 11 12 12 13 13 13 14 15 16 17 16 16 16 16 16 16 16 16 16 16 16 15 15 15 15 14 13 12 13 14 14
11 11 12 13 13 14 13 14 15 15 15 16 16 16 16 16 16 16 16 16 16 16 15 15 15 14 14 14 10 11 11 12
11 11 11 12 12 12 12 12 13 14 15 15 16 16 16 17 17 16 16 16 15 15 15 15 14 13 12 12 11 11 8 10
11 11 11 11 12 12 12 13 13 14 15 15 17 17 16 16 16 17 16 16 15 15 15 14 14 14 13 9 8 8 9 8
12 12 11 11 12 12 13 13 13 14 15 15 16 16 17 17 17 16 16 16 16 16 14 14 14 13 12 11 10 9 7 7
13 13 13 13 12 13 13 13 14 14 15 15 15 16 16 16 16 16 15 15 14 13 13 13 13 12 11 10 9 10 11 9
14 14 14 14 13 13 13 14 14 15 15 15 15 16 16 17 17 16 16 15 13 12 12 12 12 11 10 9 9 9 9 9

GFSFLT2_925_temp_069.txt.gz
Temp
15 16 18 14 15 16 15 15 16 17 17 16 16 16 16 17 17 17 17 17 17 16 16 16 16 16 16 15 15 14 13 12
13 14 15 17 15 15 14 14 16 16 17 16 16 16 17 17 18 18 18 17 17 16 17 16 16 16 16 15 15 14 13 12
14 14 14 15 16 15 14 14 16 16 16 16 16 16 17 17 18 18 18 17 16 17 17 17 16 15 15 15 15 14 13 12
14 14 15 14 13 14 14 15 15 17 16 16 16 16 17 17 17 17 17 17 16 16 16 17 16 15 15 15 15 14 13 12
13 13 12 12 13 12 12 13 14 16 17 17 16 16 16 16 17 17 17 17 17 17 16 16 16 16 15 15 14 14 13 12
13 12 12 13 12 12 12 13 14 16 17 16 16 16 16 17 17 17 17 17 17 17 17 16 16 15 15 15 14 14 13 12
13 13 13 12 12 12 13 14 14 15 15 17 17 17 17 16 16 16 17 16 17 16 16 16 16 15 15 15 14 14 13 12
12 12 12 12 12 12 13 14 14 15 15 17 17 17 17 16 16 16 16 16 16 16 16 16 16 15 15 15 14 14 13 13
12 12 12 12 13 13 13 14 14 14 16 17 17 17 17 16 16 16 16 16 16 16 15 15 15 15 15 15 15 14 14 13
12 12 12 12 12 13 13 13 13 16 17 16 17 17 16 17 16 16 16 16 16 15 15 15 15 15 15 15 15 15 14 14
11 12 11 11 12 13 13 13 15 16 17 17 17 17 17 17 16 16 16 16 15 16 16 16 15 15 15 15 15 15 15 15
11 11 11 11 12 13 13 14 15 15 16 16 16 17 16 17 16 16 16 16 16 15 16 15 15 15 15 15 14 14 14 15
11 11 11 11 12 13 14 14 14 15 15 16 16 16 16 16 16 16 15 16 16 16 15 15 15 14 14 13 14 14 14 14
11 10 11 12 12 13 13 14 15 15 15 15 15 15 16 16 16 16 16 16 16 16 15 15 15 14 14 13 11 12 13 13
10 10 11 11 12 13 13 14 15 16 16 16 16 16 16 16 16 16 16 16 16 16 15 15 15 14 14 14 10 11 11 12
10 11 11 12 12 13 13 14 14 15 16 16 16 16 16 16 16 16 16 16 16 16 16 15 14 14 12 13 13 12 10 10
11 11 11 11 12 12 13 13 14 14 15 15 16 16 16 16 16 16 16 16 16 16 15 15 14 14 13 11 10 10 10 9
10 11 11 11 12 12 12 13 13 13 14 14 15 16 17 16 16 16 16 16 15 15 15 15 14 14 13 13 12 9 8 8
10 10 10 11 11 12 12 13 13 13 13 13 14 15 16 16 17 16 16 16 16 15 15 14 13 13 13 12 12 11 10 9
11 11 11 11 11 11 11 12 12 13 13 14 15 14 16 16 16 16 16 16 16 15 13 12 12 13 13 12 11 10 9 9

GFSFLT2_925_temp_072.txt.gz
Temp
15 16 17 18 18 17 18 16 16 17 17 16 16 16 15 15 15 15 16 17 16 16 16 16 16 15 15 14 13 13 13 12
15 16 16 15 16 19 17 16 15 16 17 16 15 16 15 15 15 16 16 16 16 16 16 16 16 15 14 14 13 13 12 12
15 15 16 16 16 18 15 16 14 15 16 16 15 16 16 15 16 16 16 16 16 16 15 15 15 15 15 15 13 12 12 12
15 15 15 15 16 14 14 15 14 14 15 16 16 17 16 16 16 16 16 17 17 16 15 15 15 15 14 14 14 13 12 12
14 14 13 12 14 14 14 14 14 14 14 16 18 16 16 16 15 16 16 16 16 16 15 15 15 15 14 14 14 13 12 12
13 13 13 12 12 13 14 14 14 13 14 16 16 16 16 16 16 16 16 16 16 16 16 16 15 15 14 14 14 13 12 12
13 13 12 12 12 12 13 13 13 13 13 15 16 16 16 16 16 16 16 16 16 16 16 16 15 14 14 15 14 13 13 12
13 12 12 12 12 12 12 13 14 14 15 16 17 17 17 16 16 16 16 17 17 16 17 16 15 15 14 15 14 13 13 12
13 12 12 12 12 12 12 13 13 14 15 15 17 17 16 16 16 16 16 16 15 16 16 15 15 15 15 14 14 14 14 13
12 12 12 12 12 12 13 13 13 14 14 15 16 16 17 16 15 16 16 15 15 16 15 15 15 15 14 14 14 14 14 13
12 12 12 12 12 12 13 13 13 14 14 15 15 17 16 16 16 16 15 15 15 16 15 15 15 14 14 14 14 14 13 13
12 12 12 12 12 12 12 13 13 13 14 15 16 16 16 16 16 16 15 15 15 16 15 15 15 15 15 14 14 14 14 13
11 11 12 12 12 13 12 12 12 12 13 14 16 16 16 16 16 16 15 15 16 15 14 15 15 15 14 13 14 14 14 14
11 11 11 11 11 12 12 12 12 13 14 15 15 16 15 16 16 16 15 16 15 15 14 15 14 14 14 12 11 13 13 14
11 11 11 12 12 12 12 12 13 13 14 15 15 15 16 16 15 16 16 15 15 15 15 15 15 14 14 14 10 10 11 12
11 11 11 12 12 12 12 12 12 13 14 15 15 15 15 15 16 16 16 15 15 15 15 15 15 14 12 13 13 12 10 10
10 11 11 11 12 13 13 13 14 15 15 15 15 15 15 15 15 16 16 15 15 15 15 15 15 14 13 12 11 11 10 10
10 11 11 11 12 12 13 14 14 15 15 15 15 15 16 16 16 16 16 15 15 15 15 14 14 14 14 13 13 11 9 9
10 11 11 11 11 12 13 13 14 14 15 15 15 15 16 16 16 16 16 16 15 15 15 15 14 14 13 12 12 12 12 10
10 10 10 11 11 12 12 12 12 13 14 14 14 15 15 15 16 16 16 15 15 15 14 14 12 12 12 12 12 11 11 11

GFSFLT2_925_temp_075.txt.gz
Temp
16 17 18 17 17 18 18 18 17 16 16 16 16 17 17 16 16 16 15 15 15 15 15 15 15 14 14 14 13 13 14 14
14 14 15 16 16 17 17 17 17 16 16 16 16 16 16 16 16 16 15 16 16 15 16 16 15 14 13 13 13 13 13 13
14 14 14 14 15 16 17 16 17 17 16 15 15 15 15 15 16 16 16 16 16 16 15 15 14 14 14 13 13 13 13 14
13 14 14 15 15 16 16 15 15 16 15 15 14 14 15 15 16 16 15 15 16 15 15 14 13 13 12 13 13 13 13 13
15 15 15 15 15 15 14 14 14 14 14 14 15 15 14 14 15 16 14 15 14 14 14 13 13 13 12 12 12 12 13 13
15 14 14 13 14 14 14 14 14 14 13 14 14 14 15 15 16 16 15 14 14 15 15 15 15 15 14 14 12 13 13 13
14 13 13 13 13 13 14 13 13 14 13 14 15 15 16 16 16 16 16 16 14 14 14 15 14 15 14 14 12 12 12 13
13 13 12 12 13 13 13 13 12 13 13 14 14 17 17 16 15 16 16 16 16 16 15 15 12 14 14 13 13 12 12 12
13 13 12 12 12 13 13 13 12 12 13 14 16 17 17 16 15 15 16 16 16 16 15 12 15 14 14 13 12 12 12 12
12 12 12 12 12 12 13 13 12 12 13 15 16 17 16 16 16 16 16 15 16 16 13 14 15 14 12 12 12 12 12 11
12 12 12 12 12 12 13 13 13 13 14 15 16 16 16 16 16 16 16 15 15 15 14 15 14 13 13 13 13 13 13 12
12 12 12 12 12 12 12 13 13 13 14 15 16 16 16 16 16 16 16 15 15 14 14 14 14 15 14 14 14 14 13 13
12 12 12 12 12 12 12 12 12 13 14 15 15 15 15 16 16 15 15 15 15 14 14 14 14 14 12 12 13 14 14 13
11 12 12 12 12 12 12 12 12 13 13 14 15 15 15 15 14 15 16 15 15 14 14 14 14 14 13 13 15 14 13 14
11 11 11 11 12 12 12 12 12 12 11 13 14 14 15 15 15 16 16 15 15 14 15 15 13 14 14 14 13 14 13 13
11 11 11 11 12 12 12 11 11 11 12 12 12 13 14 15 15 16 15 15 15 15 15 15 14 13 13 13 14 13 14 13
11 11 11 11 12 12 12 11 12 12 12 12 13 14 14 14 15 15 16 16 16 16 15 15 14 13 14 13 12 11 11 12
11 11 11 11 11 12 12 12 13 12 12 12 13 14 14 15 15 16 15 15 16 15 16 14 14 14 14 12 13 13 12 11
10 11 11 11 11 11 12 12 13 13 13 13 13 13 15 15 15 15 15 15 15 15 15 14 14 12 13 12 11 12 12 12
10 10 11 11 11 11 12 12 12 13 13 13 14 13 14 15 15 15 15 14 15 15 15 13 13 13 12 11 12 12 10 10

GFSFLT2_925_temp_078.txt.gz
Temp
17 17 18 17 16 17 19 19 18 18 17 17 17 17 17 17 16 16 16 16 15 15 15 15 15 15 14 14 15 17 17 16
16 16 18 17 16 16 17 17 18 17 16 18 16 16 16 16 16 16 16 16 16 15 15 15 15 14 14 14 15 16 17 17
15 15 15 15 15 16 16 16 17 16 15 16 15 16 16 16 17 16 16 16 16 15 15 15 14 14 14 14 15 17 17 17
14 15 14 14 15 15 14 15 15 16 16 14 15 16 16 16 16 15 16 16 15 15 15 15 14 14 13 14 17 16 17 17
14 14 14 15 15 15 16 17 16 16 15 14 14 16 15 15 15 15 14 15 15 15 13 15 16 16 15 16 16 16 17 16
14 14 13 13 13 14 14 14 15 15 14 14 14 14 14 15 15 16 16 16 15 15 16 16 16 16 15 15 16 16 17 16
15 14 14 14 14 14 14 14 14 14 13 13 14 14 14 14 14 15 16 16 16 16 16 15 15 15 15 15 15 16 16 16
15 13 13 13 13 13 13 13 13 13 13 14 15 15 14 13 14 14 15 16 16 16 16 16 16 16 15 15 15 15 15 16
14 13 13 12 13 13 13 13 12 12 13 13 14 16 15 17 15 14 14 15 15 16 15 16 16 16 15 15 15 15 15 15
14 13 13 13 12 13 13 12 12 13 13 13 13 13 15 15 16 16 15 14 14 14 15 15 16 16 16 15 15 15 15 14
14 13 13 12 12 12 12 12 12 12 13 14 15 15 16 16 17 16 16 15 15 14 15 15 15 16 16 16 15 15 14 15
14 12 12 12 12 12 12 12 11 12 12 12 14 14 16 16 16 14 14 14 14 15 15 15 16 16 16 16 15 15 15 15
13 12 12 12 12 12 12 12 11 11 12 13 14 14 15 14 14 13 14 14 14 14 14 14 15 14 16 15 15 14 14 14
12 12 12 12 13 14 12 12 11 11 13 14 14 13 16 15 14 14 14 15 16 15 14 14 14 13 15 17 17 15 14 14
12 12 12 12 13 13 12 12 12 11 13 14 15 15 15 15 15 15 16 16 14 14 14 13 15 13 14 16 15 16 15 14
12 12 12 12 12 13 12 12 12 12 12 13 14 15 15 15 15 15 16 14 14 14 14 14 15 15 13 13 13 14 14 16
12 13 12 12 12 13 13 13 13 12 12 13 13 14 14 15 16 15 14 14 14 14 13 13 14 15 15 14 13 12 12 13
14 14 13 13 12 12 13 12 12 12 11 12 11 13 14 15 14 15 15 14 14 14 14 13 14 14 15 14 14 13 15 15
14 14 14 13 13 12 13 12 11 12 12 12 12 12 13 13 14 14 15 15 15 14 15 15 13 14 14 14 14 14 15 14
13 15 15 14 13 13 13 13 12 13 13 14 13 13 13 12 13 14 14 15 15 15 15 15 15 14 14 14 14 14 14 13

GFSFLT2_925_temp_081.txt.gz
Temp
18 18 17 17 17 19 17 17 17 16 18 18 17 18 17 17 17 17 16 16 15 15 15 16 16 16 16 17 18 18 19 18
17 17 16 16 18 17 16 17 17 16 18 17 18 16 17 17 16 16 16 16 15 16 15 15 15 15 16 17 17 18 19 18
16 16 16 16 16 16 17 17 17 16 17 17 17 16 16 16 16 16 16 15 15 15 15 15 15 15 15 17 17 19 19 18
15 15 15 15 16 16 16 17 17 16 17 16 16 16 16 16 16 15 16 15 15 15 15 15 15 15 16 16 18 19 19 17
15 15 15 15 15 15 16 16 16 16 16 15 16 15 15 16 15 15 14 15 14 14 15 15 17 16 16 18 18 19 19 17
15 14 15 15 15 15 16 16 16 15 15 15 14 15 14 15 16 15 15 15 15 15 16 18 17 17 17 18 18 19 18 16
15 15 15 14 14 15 15 15 15 15 15 15 14 14 14 15 16 16 16 17 16 16 18 17 17 17 17 17 18 18 18 16
16 15 14 15 15 15 14 14 14 14 14 15 15 14 14 15 16 16 17 17 17 18 17 17 17 17 17 17 17 17 18 16
18 15 14 15 14 14 13 13 13 14 13 13 13 13 13 14 15 16 17 17 17 18 17 17 18 17 17 17 17 17 17 17
17 15 14 14 14 13 13 12 12 12 11 11 12 13 14 15 15 15 16 16 16 16 17 17 18 18 17 17 17 17 16 17
18 15 14 14 14 13 12 12 12 12 12 13 12 13 14 15 13 14 14 15 15 16 16 17 17 18 17 17 17 17 16 16
17 14 13 13 13 13 12 12 11 12 11 11 11 11 12 13 13 14 15 15 15 15 16 16 17 18 18 17 17 17 17 17
16 13 13 12 12 12 12 11 11 11 11 11 11 12 13 13 14 14 15 15 15 15 15 16 17 17 18 17 17 16 17 16
16 14 12 12 12 12 12 12 11 11 11 11 12 13 15 16 16 15 15 15 15 15 15 16 16 16 17 18 17 16 16 16
16 13 13 13 13 12 12 11 11 11 12 12 13 15 15 15 14 14 15 15 15 15 16 16 17 15 15 16 16 16 17 16
15 13 13 13 13 12 12 11 12 12 12 12 13 14 14 14 14 14 14 15 15 14 15 15 16 15 14 15 15 16 14 13
15 13 13 13 13 12 12 12 12 12 12 12 13 13 13 14 15 14 15 15 15 15 16 14 15 15 15 15 15 15 13 15
16 15 14 13 13 13 14 13 12 11 11 12 12 13 13 14 14 15 15 14 14 15 15 14 15 15 15 15 15 15 15 14
16 16 15 13 13 13 14 14 13 12 12 12 12 12 13 14 14 14 14 15 14 15 15 15 15 15 15 15 15 15 16 16
17 16 16 14 13 14 14 14 14 13 13 12 12 12 13 14 14 14 14 14 15 15 15 15 14 14 14 15 15 15 15 16

GFSFLT2_925_temp_084.txt.gz
Temp
19 18 18 18 18 18 18 19 21 16 17 16 18 18 18 17 17 16 16 16 16 15 16 17 17 18 18 18 19 19 17 16
18 18 17 16 17 18 17 17 18 17 18 16 17 17 17 17 17 17 16 16 16 15 16 16 17 17 18 18 19 18 17 16
16 17 17 17 17 17 17 18 18 18 17 16 17 17 17 17 16 16 16 16 15 15 16 16 16 17 17 18 18 18 17 15
16 16 16 16 16 16 17 17 17 17 16 15 16 17 17 16 16 16 16 16 15 15 15 16 16 17 17 18 18 18 16 15
15 16 16 16 16 16 16 16 17 16 15 15 15 16 15 15 15 15 15 15 14 15 15 15 16 16 17 18 18 17 16 14
16 16 16 16 16 16 17 17 16 16 15 16 16 15 14 15 14 14 14 14 14 15 16 16 16 16 17 17 19 17 15 14
16 15 15 15 15 15 16 16 16 17 16 16 16 16 15 14 15 14 14 15 14 16 16 16 16 17 17 18 18 16 16 14
17 16 15 15 15 16 16 15 15 15 16 15 15 15 15 15 15 14 15 15 16 16 17 17 17 17 17 17 18 16 15 14
16 16 15 16 15 15 14 14 15 15 15 15 14 14 13 14 14 15 16 16 17 17 17 17 17 17 17 17 18 17 16 14
16 15 15 15 15 14 13 13 13 13 14 15 14 14 14 14 15 15 16 17 17 17 17 17 17 17 17 17 17 17 16 15
17 16 15 15 14 13 13 12 12 12 13 14 13 13 13 14 13 15 15 17 16 17 17 17 17 17 17 17 17 17 17 16
16 15 15 14 13 13 12 11 11 11 11 11 11 12 12 12 13 13 14 16 16 16 17 17 17 17 17 17 17 17 16 17
16 15 14 13 13 12 11 11 11 11 12 12 13 12 12 13 13 13 13 15 16 16 16 17 17 17 17 17 17 17 17 17
15 15 14 13 13 12 12 11 11 11 11 10 10 12 13 12 12 13 13 13 15 15 16 16 16 16 17 17 14 16 16 16
15 15 13 13 13 12 11 11 10 11 11 12 12 12 12 12 13 14 14 15 15 15 15 16 16 17 17 17 14 13 15 16
17 15 13 13 13 12 11 11 11 11 11 11 11 11 12 14 14 14 15 15 15 15 15 16 16 16 16 15 16 16 13 12
17 14 13 13 13 12 11 11 12 11 11 11 11 12 13 14 14 15 15 15 15 15 15 16 16 15 15 15 14 15 15 14
16 14 13 14 13 12 12 12 12 11 11 12 12 13 14 14 14 14 14 15 15 15 15 15 15 15 15 15 15 15 14 13
15 14 13 13 13 12 12 12 12 12 12 12 12 12 12 13 14 13 14 15 15 15 14 15 15 16 15 15 15 15 15 15
17 15 14 13 13 13 13 13 12 12 12 12 12 12 12 12 13 14 15 15 15 15 15 14 16 16 15 15 15 15 15 15

GFSFLT2_925_temp_087.txt.gz
Temp
19 18 18 18 19 19 18 18 18 18 18 18 20 14 17 18 17 17 16 17 17 17 17 17 17 17 18 18 16 16 15 14
19 18 18 17 18 18 18 18 18 17 16 16 17 15 16 18 18 18 17 17 17 16 17 17 17 18 18 17 17 16 15 14
18 18 18 17 17 17 17 17 18 16 17 14 15 15 16 17 18 17 17 17 17 16 17 17 17 18 18 17 16 16 15 14
17 17 17 17 16 16 17 17 17 17 17 15 15 15 16 16 17 17 16 16 16 16 16 17 17 18 18 17 16 15 15 14
16 16 17 17 17 17 17 17 17 17 16 15 15 15 16 16 16 15 15 15 15 16 16 17 17 18 18 17 16 15 15 13
16 16 16 16 16 17 16 17 17 17 16 15 16 15 15 15 15 15 15 15 15 15 16 16 17 18 18 17 15 15 14 13
17 16 15 16 16 16 16 16 16 17 16 15 15 15 15 15 14 14 15 15 15 15 15 16 17 17 17 16 16 15 14 13
17 16 16 15 16 16 16 16 16 16 15 15 16 15 14 14 14 15 14 16 15 15 16 16 17 17 17 16 16 15 14 13
16 17 17 16 15 15 15 15 15 16 16 15 15 15 14 14 14 14 14 16 16 16 16 17 17 17 17 16 16 15 15 14
16 16 16 16 15 15 15 14 14 15 15 15 15 15 15 14 14 14 14 16 16 16 16 17 17 17 17 16 15 15 15 14
16 16 16 16 15 15 15 14 14 14 14 15 15 14 14 14 13 14 14 17 16 16 17 17 17 17 17 17 15 15 15 14
17 16 15 15 14 14 13 12 13 13 13 14 14 14 14 13 13 14 15 17 16 16 17 17 17 17 17 17 17 16 15 15
15 15 14 14 13 12 11 11 11 11 11 13 14 14 13 12 12 14 15 16 17 17 17 17 17 17 17 16 17 17 16 15
15 15 14 14 12 12 12 11 11 11 11 11 12 12 12 12 13 14 14 16 16 17 17 16 17 17 16 16 13 15 16 16
15 15 14 14 13 12 11 11 11 11 10 11 11 12 12 13 13 13 13 15 16 16 17 17 16 17 16 15 12 12 14 16
16 15 14 14 13 12 11 11 11 11 11 11 11 11 12 12 13 13 13 14 15 16 17 17 16 16 15 15 17 16 12 12
16 15 14 13 12 12 11 11 12 11 10 10 10 10 11 12 12 13 13 14 15 16 16 16 16 16 16 15 14 15 14 12
15 14 14 13 12 12 11 11 11 11 11 10 10 11 12 12 13 13 14 14 15 15 15 16 16 16 16 16 15 14 13 13
14 14 14 13 12 12 12 12 11 11 11 11 11 11 12 13 13 14 14 14 15 15 15 15 16 15 15 15 16 15 15 15
14 14 14 13 13 12 12 12 11 11 11 11 11 12 12 13 13 13 14 14 15 15 15 15 15 15 14 15 15 15 15 15

GFSFLT2_925_temp_090.txt.gz
Temp
19 19 18 19 18 18 18 18 18 17 17 17 17 17 18 16 16 17 18 18 17 16 17 17 17 16 16 16 16 16 15 15
19 18 18 18 18 18 18 18 17 17 17 17 17 18 16 16 15 17 18 18 17 16 17 17 17 17 16 16 16 15 15 14
19 18 19 18 17 17 17 17 17 17 17 17 17 18 18 16 16 18 17 17 17 17 17 17 17 17 16 16 15 15 14 14
18 18 18 17 17 17 17 17 17 17 16 16 16 16 15 15 16 17 17 17 17 17 16 17 16 15 15 15 15 14 14 14
17 18 18 17 17 16 16 16 16 16 15 15 15 15 16 15 15 17 16 16 15 16 16 17 16 15 15 16 15 15 14 13
17 16 17 18 17 17 17 16 15 15 15 16 14 15 15 15 15 16 16 16 16 16 16 17 16 16 16 16 15 14 14 13
16 16 17 17 18 16 16 15 15 16 16 16 15 15 15 14 14 14 16 16 16 16 16 17 17 15 16 16 15 14 14 13
17 17 17 16 16 16 16 16 15 15 16 16 15 14 14 14 14 14 15 16 16 16 16 17 17 16 16 15 15 14 13 13
17 17 16 16 16 16 16 15 15 15 15 14 14 14 14 14 14 13 14 15 16 16 16 17 16 16 15 15 15 14 14 13
17 17 16 16 16 16 15 15 15 15 15 14 14 14 14 14 14 14 15 15 15 15 16 16 16 15 15 14 14 14 13 13
17 17 16 15 15 16 15 14 14 14 15 14 14 14 14 14 14 13 15 15 14 15 15 16 16 15 14 14 14 14 13 13
17 16 16 15 15 15 14 14 14 14 15 14 14 14 14 14 13 14 14 15 14 15 15 16 16 16 15 14 15 14 14 13
16 16 15 14 14 13 12 12 12 13 14 13 14 14 14 13 13 12 13 14 14 15 15 16 16 16 14 13 13 14 14 14
15 15 14 14 15 14 13 12 11 12 13 13 13 14 14 14 14 14 12 14 14 15 15 15 15 16 15 15 12 12 12 13
14 14 13 14 15 13 12 11 11 11 11 12 12 13 14 13 13 12 12 13 14 15 16 16 15 16 16 15 11 11 13 13
14 14 14 13 14 12 12 11 11 10 11 11 12 12 12 13 12 12 12 13 14 15 17 16 16 15 16 16 16 15 12 11
14 14 13 13 13 13 11 11 11 11 10 11 11 12 12 11 11 13 13 13 14 16 16 16 16 15 15 14 14 14 15 12
14 13 13 13 13 12 12 11 11 11 10 10 11 11 11 12 12 12 13 13 14 16 16 17 17 16 16 16 15 14 13 13
13 13 12 12 13 12 12 12 11 11 11 11 10 11 11 11 12 12 12 12 13 13 14 16 16 16 16 15 16 15 16 15
13 12 12 12 12 12 12 12 12 11 12 11 11 11 11 12 12 13 13 13 13 13 15 16 16 16 16 16 16 15 15 16

GFSFLT2_925_temp_093.txt.gz
Temp
19 19 19 18 18 19 18 18 18 18 18 18 18 17 17 16 17 18 17 17 17 16 16 16 16 16 16 16 16 16 16 16
19 19 19 19 18 18 18 18 18 18 17 17 17 17 16 17 17 17 16 17 17 16 16 16 16 16 16 16 16 16 16 15
19 19 18 18 19 18 17 18 17 17 16 16 16 15 16 16 17 18 15 16 17 16 16 16 16 16 16 16 15 15 15 15
18 18 18 18 18 17 17 17 16 16 16 16 15 15 16 16 16 17 16 15 17 16 16 16 16 16 15 15 15 15 15 14
18 18 17 18 18 17 16 16 16 16 16 16 15 15 15 16 16 17 15 15 17 16 15 16 16 15 14 15 15 14 14 14
18 17 17 17 18 16 16 16 16 16 16 15 14 14 14 14 15 16 15 15 16 16 15 16 16 15 15 15 14 14 14 14
18 17 17 17 18 17 16 15 15 16 16 15 15 14 14 14 14 15 14 16 16 16 15 16 15 15 15 15 14 14 14 13
18 17 17 17 17 17 16 16 15 14 15 15 15 14 15 15 14 13 14 15 16 16 15 15 15 15 15 14 14 14 14 13
17 17 16 17 17 16 15 15 16 15 15 15 15 14 15 14 14 14 14 14 15 16 15 15 15 15 15 14 14 14 14 13
17 16 16 16 16 16 16 15 15 15 15 15 14 14 14 14 14 14 14 15 15 15 15 15 14 14 14 14 14 14 13 13
17 16 16 16 16 16 15 15 15 15 15 14 14 14 14 14 14 13 14 15 14 15 15 15 14 14 14 14 14 14 13 13
17 16 16 15 15 15 14 14 14 14 14 14 14 14 14 14 13 13 14 14 13 14 15 14 15 15 13 13 13 13 13 13
16 15 15 14 14 13 13 13 14 14 14 14 14 14 14 14 13 13 13 13 14 14 13 14 14 14 12 11 11 12 12 12
14 14 14 14 13 13 12 12 14 14 14 14 14 14 14 14 14 13 13 13 13 13 14 13 13 14 13 12 11 11 11 11
14 14 14 14 13 14 13 12 13 13 12 13 13 13 13 14 13 13 13 13 13 14 14 14 13 13 14 14 11 12 11 12
14 13 13 13 14 14 14 12 11 11 12 12 11 12 13 13 13 13 12 12 13 14 14 15 15 14 14 15 16 14 11 10
13 13 13 13 13 14 14 12 11 11 11 11 12 12 13 13 13 12 12 12 13 14 14 15 16 14 14 13 14 14 14 11
13 13 12 13 13 14 14 12 12 10 11 11 11 12 12 12 12 12 11 11 12 12 13 15 15 16 16 15 15 14 13 13
13 13 12 12 12 13 13 13 12 11 11 11 11 11 11 11 11 11 10 11 12 12 13 12 14 15 14 15 16 16 16 16
13 12 12 12 12 12 13 13 12 11 12 11 11 11 12 11 11 11 11 10 11 11 12 13 14 14 16 16 16 15 16 16